UEA5V KJFK-OMDB

Flight info

Callsign UEA5V
Flight time N/A
Altitude 33000
Route GREKI DCT JUDDS DCT MARTN DCT TOPPS N635A RIKAL/M085F350 NATS NETKI/N0492F370 DCT BOFUM Q37 DONAX DCT KEPAD L15 FINMA DCT CHT DCT ITVIP DCT KONAN DCT KOK UL607 FERDI DCT REMBA DCT SPI DCT ULNOK DCT VIBOM DCT NOMBO DCT RIDAR DCT RADIZ DCT NEMEK DCT ELTIB DCT GLOMY DCT PETAK DCT DIMIS/N0483F390 DCT SALUN N705 MMA P751 DASUM Y234 FYM M872 BDB Y214 RAPMA DCT KUVSO DCT KATIT DCT PEKEM M628 RIGIL G783 ELUDA/N0469F350 G783 ASPED Q308 KIPOK Q568 IMPED
Aircraft A388/J-SADE2E3FGHIJ3J4J5M1RWXY/LB1D1

Departure

Time 2026-05-07 22:57
Airport John F. Kennedy International Airport (KJFK)

Arrival

Time N/A
Airport Dubai International Airport (OMDB)
Time Latitude Longitude Altitude Speed Heading
2026-05-07 22:17 40.64211 -73.77874 28 ft 0 kts 26°
2026-05-07 22:42 40.64196 -73.77883 28 ft 4 kts 26°
2026-05-07 22:42 40.64172 -73.77899 26 ft 4 kts 26°
2026-05-07 22:42 40.64148 -73.77914 27 ft 2 kts 26°
2026-05-07 22:43 40.64134 -73.77926 25 ft 4 kts 58°
2026-05-07 22:43 40.64132 -73.77930 25 ft 4 kts 111°
2026-05-07 22:43 40.64143 -73.77945 27 ft 4 kts 149°
2026-05-07 22:43 40.64148 -73.77949 27 ft 4 kts 150°
2026-05-07 22:44 40.64154 -73.77953 27 ft 4 kts 150°
2026-05-07 22:44 40.64176 -73.77970 27 ft 4 kts 150°
2026-05-07 22:44 40.64178 -73.77972 26 ft 4 kts 150°
2026-05-07 22:44 40.64193 -73.77983 26 ft 1 kts 150°
2026-05-07 22:49 40.64189 -73.77980 26 ft 1 kts 150°
2026-05-07 22:50 40.64177 -73.77970 27 ft 3 kts 148°
2026-05-07 22:50 40.64153 -73.77952 27 ft 6 kts 150°
2026-05-07 22:50 40.64106 -73.77917 26 ft 10 kts 150°
2026-05-07 22:50 40.64031 -73.77885 28 ft 13 kts 168°
2026-05-07 22:51 40.63936 -73.77830 28 ft 17 kts 151°
2026-05-07 22:51 40.63828 -73.77734 28 ft 13 kts 144°
2026-05-07 22:51 40.63786 -73.77690 27 ft 9 kts 127°
2026-05-07 22:51 40.63745 -73.77654 30 ft 8 kts 180°
2026-05-07 22:52 40.63691 -73.77682 30 ft 10 kts 206°
2026-05-07 22:52 40.63619 -73.77736 27 ft 14 kts 211°
2026-05-07 22:52 40.63535 -73.77803 27 ft 15 kts 211°
2026-05-07 22:52 40.63444 -73.77876 29 ft 16 kts 211°
2026-05-07 22:53 40.63371 -73.77907 29 ft 7 kts 156°
2026-05-07 22:53 40.63337 -73.77864 31 ft 7 kts 124°
2026-05-07 22:53 40.63305 -73.77801 32 ft 10 kts 122°
2026-05-07 22:53 40.63263 -73.77710 32 ft 14 kts 121°
2026-05-07 22:54 40.63206 -73.77586 33 ft 17 kts 120°
2026-05-07 22:54 40.63138 -73.77429 34 ft 23 kts 120°
2026-05-07 22:54 40.63077 -73.77290 32 ft 14 kts 120°
2026-05-07 22:54 40.63016 -73.77156 30 ft 20 kts 124°
2026-05-07 22:55 40.62990 -73.77117 29 ft 4 kts 142°
2026-05-07 22:55 40.62950 -73.77098 28 ft 6 kts 188°
2026-05-07 22:55 40.62895 -73.77129 29 ft 11 kts 207°
2026-05-07 22:55 40.62833 -73.77201 29 ft 12 kts 261°
2026-05-07 22:56 40.62862 -73.77315 30 ft 14 kts 299°
2026-05-07 22:56 40.62948 -73.77508 33 ft 51 kts 302°
2026-05-07 22:56 40.63235 -73.78136 28 ft 107 kts 300°
2026-05-07 22:56 40.63691 -73.79133 29 ft 144 kts 301°
2026-05-07 22:57 40.64198 -73.80356 222 ft 151 kts 302°
2026-05-07 22:57 40.64735 -73.81572 460 ft 161 kts 304°
2026-05-07 22:57 40.65336 -73.82866 640 ft 170 kts 307°
2026-05-07 22:57 40.65958 -73.84194 888 ft 173 kts 304°
2026-05-07 22:58 40.66719 -73.85410 1182 ft 171 kts 322°
2026-05-07 22:58 40.67732 -73.86178 1534 ft 171 kts 340°
2026-05-07 22:58 40.68935 -73.86396 1690 ft 183 kts
2026-05-07 22:58 40.70194 -73.85877 1774 ft 198 kts 26°
2026-05-07 22:59 40.71426 -73.84978 1875 ft 208 kts 25°
2026-05-07 22:59 40.72738 -73.84056 1966 ft 220 kts 25°
2026-05-07 22:59 40.74169 -73.83070 2136 ft 242 kts 25°
2026-05-07 22:59 40.75684 -73.82029 2511 ft 252 kts 25°
2026-05-07 23:00 40.77258 -73.80941 3129 ft 252 kts 25°
2026-05-07 23:00 40.78812 -73.79865 3587 ft 258 kts 25°
2026-05-07 23:00 40.80408 -73.78760 4202 ft 259 kts 25°
2026-05-07 23:00 40.82017 -73.77645 4833 ft 263 kts 25°
2026-05-07 23:01 40.83654 -73.76509 5393 ft 268 kts 24°
2026-05-07 23:01 40.85328 -73.75351 5936 ft 274 kts 25°
2026-05-07 23:01 40.87027 -73.74173 6525 ft 277 kts 24°
2026-05-07 23:01 40.88745 -73.72982 7084 ft 280 kts 24°
2026-05-07 23:02 40.90487 -73.71772 7633 ft 284 kts 24°
2026-05-07 23:02 40.90875 -73.71502 7787 ft 284 kts 23°
2026-05-07 23:02 40.92638 -73.70278 8333 ft 289 kts 23°
2026-05-07 23:02 40.94433 -73.69031 8936 ft 291 kts 22°
2026-05-07 23:03 40.96216 -73.67791 9469 ft 296 kts 22°
2026-05-07 23:03 40.98051 -73.66514 9997 ft 300 kts 22°
2026-05-07 23:03 40.99929 -73.65210 10255 ft 313 kts 22°
2026-05-07 23:03 41.01914 -73.63835 10391 ft 330 kts 22°
2026-05-07 23:04 41.03996 -73.62389 10552 ft 344 kts 22°
2026-05-07 23:04 41.06152 -73.60884 10804 ft 355 kts 22°
2026-05-07 23:04 41.08358 -73.59338 11191 ft 361 kts 22°
2026-05-07 23:04 41.10588 -73.57775 11634 ft 365 kts 22°
2026-05-07 23:05 41.12848 -73.56189 12054 ft 370 kts 22°
2026-05-07 23:05 41.15143 -73.54579 12470 ft 375 kts 22°
2026-05-07 23:05 41.17464 -73.52954 12906 ft 380 kts 22°
2026-05-07 23:05 41.19817 -73.51305 13368 ft 384 kts 22°
2026-05-07 23:06 41.22192 -73.49639 13851 ft 386 kts 22°
2026-05-07 23:06 41.24568 -73.47966 14317 ft 389 kts 22°
2026-05-07 23:06 41.26950 -73.46293 14642 ft 394 kts 22°
2026-05-07 23:06 41.29386 -73.44578 15043 ft 398 kts 22°
2026-05-07 23:07 41.31843 -73.42849 15403 ft 402 kts 22°
2026-05-07 23:07 41.34339 -73.41091 15776 ft 407 kts 22°
2026-05-07 23:07 41.36860 -73.39312 16165 ft 411 kts 22°
2026-05-07 23:07 41.39394 -73.37521 16494 ft 416 kts 22°
2026-05-07 23:08 41.41960 -73.35708 16925 ft 419 kts 22°
2026-05-07 23:08 41.44554 -73.33872 17282 ft 423 kts 22°
2026-05-07 23:08 41.47137 -73.31925 17622 ft 431 kts 29°
2026-05-07 23:08 41.49493 -73.29475 17971 ft 440 kts 39°
2026-05-07 23:09 41.51681 -73.26556 18225 ft 447 kts 42°
2026-05-07 23:09 41.53882 -73.23602 18583 ft 448 kts 41°
2026-05-07 23:09 41.56099 -73.20653 18932 ft 450 kts 41°
2026-05-07 23:09 41.58321 -73.17700 19305 ft 452 kts 41°
2026-05-07 23:10 41.60561 -73.14734 19586 ft 454 kts 39°
2026-05-07 23:10 41.63081 -73.12272 19898 ft 446 kts 21°
2026-05-07 23:10 41.65932 -73.10785 20203 ft 433 kts
2026-05-07 23:10 41.68868 -73.10370 20555 ft 417 kts 347°
2026-05-07 23:11 41.71669 -73.10952 20875 ft 402 kts 335°
2026-05-07 23:11 41.74372 -73.11931 21188 ft 403 kts 334°
2026-05-07 23:11 41.77114 -73.12817 21565 ft 408 kts 338°
2026-05-07 23:11 41.79929 -73.13529 21870 ft 413 kts 340°
2026-05-07 23:12 41.82798 -73.13831 22198 ft 430 kts 354°
2026-05-07 23:12 41.85810 -73.13144 22523 ft 449 kts
2026-05-07 23:12 41.88728 -73.11431 22836 ft 466 kts 25°
2026-05-07 23:12 41.91348 -73.08782 23080 ft 479 kts 40°
2026-05-07 23:13 41.93541 -73.05368 23398 ft 486 kts 50°
2026-05-07 23:13 41.95581 -73.01728 23668 ft 488 kts 49°
2026-05-07 23:13 41.97703 -72.98163 23993 ft 488 kts 47°
2026-05-07 23:13 41.99935 -72.94697 24127 ft 491 kts 44°
2026-05-07 23:14 42.02243 -72.91302 24362 ft 493 kts 43°
2026-05-07 23:14 42.04585 -72.87935 24646 ft 494 kts 43°
2026-05-07 23:14 42.06948 -72.84565 24955 ft 495 kts 43°
2026-05-07 23:14 42.09280 -72.81240 25239 ft 496 kts 43°
2026-05-07 23:15 42.11660 -72.77841 25441 ft 500 kts 43°
2026-05-07 23:15 42.14046 -72.74422 25784 ft 500 kts 43°
2026-05-07 23:15 42.16430 -72.70999 26088 ft 503 kts 43°
2026-05-07 23:15 42.18834 -72.67542 26350 ft 505 kts 43°
2026-05-07 23:16 42.21238 -72.64080 26647 ft 507 kts 43°
2026-05-07 23:16 42.23664 -72.60582 26965 ft 509 kts 43°
2026-05-07 23:16 42.26097 -72.57072 27198 ft 512 kts 43°
2026-05-07 23:16 42.28535 -72.53550 27539 ft 515 kts 44°
2026-05-07 23:17 42.30976 -72.50017 27917 ft 515 kts 44°
2026-05-07 23:17 42.33401 -72.46504 28235 ft 517 kts 44°
2026-05-07 23:17 42.35866 -72.42930 28555 ft 520 kts 44°
2026-05-07 23:17 42.38337 -72.39342 28869 ft 522 kts 44°
2026-05-07 23:18 42.40814 -72.35742 29172 ft 525 kts 44°
2026-05-07 23:18 42.43309 -72.32109 29504 ft 527 kts 44°
2026-05-07 23:18 42.45814 -72.28455 29812 ft 530 kts 44°
2026-05-07 23:18 42.48326 -72.24789 30054 ft 532 kts 44°
2026-05-07 23:19 42.50854 -72.21097 30348 ft 534 kts 44°
2026-05-07 23:19 42.53379 -72.17404 30587 ft 537 kts 44°
2026-05-07 23:19 42.55906 -72.13702 30812 ft 540 kts 44°
2026-05-07 23:19 42.58465 -72.09950 31081 ft 542 kts 44°
2026-05-07 23:20 42.61032 -72.06178 31347 ft 545 kts 45°
2026-05-07 23:20 42.63611 -72.02386 31569 ft 548 kts 45°
2026-05-07 23:20 42.66213 -71.98554 31828 ft 550 kts 45°
2026-05-07 23:20 42.68809 -71.94726 32057 ft 553 kts 45°
2026-05-07 23:21 42.71430 -71.90855 32243 ft 556 kts 45°
2026-05-07 23:21 42.74062 -71.86965 32416 ft 560 kts 45°
2026-05-07 23:21 42.76702 -71.83056 32703 ft 562 kts 45°
2026-05-07 23:21 42.79351 -71.79129 32857 ft 567 kts 45°
2026-05-07 23:22 42.82042 -71.75136 32816 ft 576 kts 45°
2026-05-07 23:22 42.87457 -71.67079 32817 ft 581 kts 45°
2026-05-07 23:23 42.92927 -71.58916 32844 ft 582 kts 45°
2026-05-07 23:23 42.98359 -71.50789 32792 ft 583 kts 46°
2026-05-07 23:24 43.03822 -71.42591 32798 ft 583 kts 46°
2026-05-07 23:24 43.09276 -71.34383 32798 ft 582 kts 46°
2026-05-07 23:25 43.14717 -71.26174 32790 ft 581 kts 46°
2026-05-07 23:25 43.20115 -71.18005 32764 ft 581 kts 46°
2026-05-07 23:26 43.25534 -71.09781 32767 ft 581 kts 46°
2026-05-07 23:26 43.30953 -71.01534 32768 ft 581 kts 46°
2026-05-07 23:27 43.38156 -70.90533 32820 ft 581 kts 46°
2026-05-07 23:27 43.43568 -70.82241 32772 ft 582 kts 46°
2026-05-07 23:28 43.48981 -70.73923 32780 ft 583 kts 46°
2026-05-07 23:28 43.54390 -70.65588 32799 ft 584 kts 47°
2026-05-07 23:29 43.59813 -70.57206 32784 ft 586 kts 47°
2026-05-07 23:29 43.65239 -70.48794 32779 ft 586 kts 47°
2026-05-07 23:30 43.70622 -70.40424 32771 ft 587 kts 47°
2026-05-07 23:30 43.76045 -70.31968 32777 ft 588 kts 47°
2026-05-07 23:31 43.81467 -70.23488 32782 ft 588 kts 47°
2026-05-07 23:31 43.86880 -70.14998 32793 ft 588 kts 47°
2026-05-07 23:32 43.92288 -70.06490 32772 ft 588 kts 47°
2026-05-07 23:32 43.97686 -69.97970 32779 ft 588 kts 47°
2026-05-07 23:33 44.03092 -69.89414 32777 ft 590 kts 47°
2026-05-07 23:33 44.08469 -69.80878 32766 ft 590 kts 48°
2026-05-07 23:34 44.13873 -69.72273 32782 ft 590 kts 48°
2026-05-07 23:34 44.19280 -69.63636 32763 ft 591 kts 48°
2026-05-07 23:35 44.24686 -69.54977 32760 ft 591 kts 48°
2026-05-07 23:35 44.30079 -69.46310 32795 ft 592 kts 48°
2026-05-07 23:36 44.35444 -69.37662 32732 ft 591 kts 49°
2026-05-07 23:36 44.40820 -69.28971 32725 ft 592 kts 49°
2026-05-07 23:37 44.46217 -69.20218 32717 ft 594 kts 49°
2026-05-07 23:37 44.51624 -69.11422 32731 ft 595 kts 49°
2026-05-07 23:38 44.56986 -69.02671 32730 ft 596 kts 49°
2026-05-07 23:38 44.62388 -68.93829 32732 ft 597 kts 49°
2026-05-07 23:39 44.67784 -68.84970 32740 ft 597 kts 49°
2026-05-07 23:39 44.73184 -68.76076 32746 ft 597 kts 49°
2026-05-07 23:40 44.78573 -68.67171 32743 ft 597 kts 49°
2026-05-07 23:40 44.83955 -68.58250 32698 ft 597 kts 50°
2026-05-07 23:41 44.89332 -68.49309 32710 ft 598 kts 50°
2026-05-07 23:41 44.94701 -68.40353 32699 ft 600 kts 50°
2026-05-07 23:42 45.00094 -68.31329 32712 ft 601 kts 50°
2026-05-07 23:42 45.05492 -68.22266 32716 ft 602 kts 50°
2026-05-07 23:43 45.10862 -68.13222 32710 ft 603 kts 50°
2026-05-07 23:43 45.16256 -68.04108 32714 ft 603 kts 50°
2026-05-07 23:44 45.21640 -67.94985 32766 ft 603 kts 50°
2026-05-07 23:44 45.27031 -67.85830 32634 ft 604 kts 50°
2026-05-07 23:45 45.32423 -67.76652 32681 ft 604 kts 50°
2026-05-07 23:45 45.37825 -67.67561 32742 ft 606 kts 49°
2026-05-07 23:46 45.43407 -67.58498 32720 ft 608 kts 48°
2026-05-07 23:46 45.48993 -67.49433 32713 ft 608 kts 49°
2026-05-07 23:47 45.54527 -67.40406 32694 ft 608 kts 49°
2026-05-07 23:47 45.60094 -67.31290 32709 ft 608 kts 49°
2026-05-07 23:48 45.65641 -67.22176 32711 ft 608 kts 49°
2026-05-07 23:48 45.71172 -67.13058 32702 ft 608 kts 49°
2026-05-07 23:49 45.76703 -67.03903 32702 ft 608 kts 49°
2026-05-07 23:49 45.82224 -66.94724 32645 ft 608 kts 49°
2026-05-07 23:50 45.87726 -66.85542 32680 ft 610 kts 49°
2026-05-07 23:50 45.93261 -66.76277 32672 ft 611 kts 49°
2026-05-07 23:51 45.98764 -66.67033 32695 ft 613 kts 49°
2026-05-07 23:51 46.04299 -66.57705 32698 ft 613 kts 49°
2026-05-07 23:52 46.09837 -66.48340 32691 ft 613 kts 49°
2026-05-07 23:52 46.15361 -66.38965 32696 ft 613 kts 49°
2026-05-07 23:53 46.20870 -66.29586 32700 ft 612 kts 49°
2026-05-07 23:53 46.26365 -66.20198 32689 ft 611 kts 49°
2026-05-07 23:54 46.31844 -66.10805 32627 ft 610 kts 50°
2026-05-07 23:54 46.37272 -66.01467 32646 ft 610 kts 50°
2026-05-07 23:55 46.42762 -65.91992 32653 ft 612 kts 50°
2026-05-07 23:55 46.48231 -65.82520 32662 ft 613 kts 50°
2026-05-07 23:56 46.53672 -65.73064 32685 ft 614 kts 50°
2026-05-07 23:56 46.59143 -65.63524 32687 ft 615 kts 50°
2026-05-07 23:57 46.64584 -65.54002 32712 ft 615 kts 50°
2026-05-07 23:57 46.70048 -65.44407 32713 ft 614 kts 50°
2026-05-07 23:58 46.75488 -65.34821 32706 ft 613 kts 50°
2026-05-07 23:58 46.80923 -65.25209 32714 ft 612 kts 50°
2026-05-07 23:59 46.86286 -65.15693 32682 ft 609 kts 50°
2026-05-07 23:59 46.91661 -65.06121 32673 ft 609 kts 50°
2026-05-08 00:00 46.97027 -64.96532 32700 ft 608 kts 50°
2026-05-08 00:00 47.02390 -64.86916 32684 ft 608 kts 50°
2026-05-08 00:01 47.07705 -64.77353 32690 ft 607 kts 50°
2026-05-08 00:01 47.13038 -64.67722 32707 ft 606 kts 50°
2026-05-08 00:02 47.18352 -64.58092 32703 ft 606 kts 50°
2026-05-08 00:02 47.23656 -64.48447 32684 ft 605 kts 50°
2026-05-08 00:03 47.28902 -64.38873 32705 ft 604 kts 51°
2026-05-08 00:03 47.34176 -64.29214 32695 ft 603 kts 51°
2026-05-08 00:04 47.39434 -64.19551 32639 ft 602 kts 51°
2026-05-08 00:04 47.44681 -64.09872 32674 ft 603 kts 51°
2026-05-08 00:05 47.49924 -64.00168 32678 ft 604 kts 51°
2026-05-08 00:05 47.55168 -63.90428 32689 ft 605 kts 51°
2026-05-08 00:06 47.60382 -63.80707 32722 ft 605 kts 51°
2026-05-08 00:06 47.65621 -63.70906 32712 ft 605 kts 51°
2026-05-08 00:07 47.70838 -63.61110 32704 ft 604 kts 51°
2026-05-08 00:07 47.76032 -63.51322 32718 ft 602 kts 51°
2026-05-08 00:08 47.81175 -63.41596 32693 ft 600 kts 52°
2026-05-08 00:08 47.86328 -63.31815 32680 ft 599 kts 52°
2026-05-08 00:09 47.91467 -63.22025 32681 ft 598 kts 52°
2026-05-08 00:09 47.96588 -63.12236 32677 ft 597 kts 52°
2026-05-08 00:10 48.01660 -63.02504 32680 ft 597 kts 52°
2026-05-08 00:10 48.06756 -62.92692 32675 ft 597 kts 52°
2026-05-08 00:11 48.11843 -62.82862 32693 ft 597 kts 52°
2026-05-08 00:11 48.16932 -62.72992 32689 ft 597 kts 52°
2026-05-08 00:12 48.21980 -62.63167 32691 ft 598 kts 52°
2026-05-08 00:12 48.27042 -62.53277 32704 ft 596 kts 53°
2026-05-08 00:13 48.32087 -62.43383 32700 ft 595 kts 53°
2026-05-08 00:13 48.37107 -62.33503 32688 ft 593 kts 53°
2026-05-08 00:14 48.42068 -62.23703 32697 ft 591 kts 53°
2026-05-08 00:14 48.47045 -62.13838 32672 ft 589 kts 53°
2026-05-08 00:15 48.51167 -62.05639 32663 ft 589 kts 53°
2026-05-08 00:15 48.56112 -61.95771 32693 ft 589 kts 53°
2026-05-08 00:16 48.61035 -61.85908 32682 ft 588 kts 53°
2026-05-08 00:16 48.65956 -61.76015 32676 ft 587 kts 54°
2026-05-08 00:17 48.70851 -61.66137 32681 ft 586 kts 54°
2026-05-08 00:17 48.75730 -61.56257 32682 ft 585 kts 54°
2026-05-08 00:18 48.80567 -61.46425 32667 ft 584 kts 54°
2026-05-08 00:18 48.85416 -61.36530 32658 ft 584 kts 54°
2026-05-08 00:19 48.90241 -61.26652 32678 ft 581 kts 55°
2026-05-08 00:19 48.95045 -61.16777 32666 ft 580 kts 55°
2026-05-08 00:20 48.99825 -61.06916 32654 ft 578 kts 55°
2026-05-08 00:20 49.04565 -60.97105 32662 ft 576 kts 55°
2026-05-08 00:21 49.09303 -60.87258 32656 ft 575 kts 55°
2026-05-08 00:21 49.14027 -60.77405 32648 ft 574 kts 55°
2026-05-08 00:22 49.18742 -60.67535 32652 ft 573 kts 56°